Time,TemperatureF,DewpointF,PressureIn,WindDirection,WindDirectionDegrees,WindSpeedMPH,WindSpeedGustMPH,Humidity,HourlyPrecipIn,Conditions,Clouds,dailyrainin,SolarRadiationWatts/m^2,SoftwareType,DateUTC
2013-02-06 00:00:00,65.1,62.4,30.08,NW,318,3.0,3.0,91,0.00,,,0.00,0,Wunderground v.1.15,2013-02-06 10:00:00,
2013-02-06 00:10:00,65.4,62.1,30.08,NW,318,2.0,2.0,89,0.00,,,0.00,0,Wunderground v.1.15,2013-02-06 10:10:00,
2013-02-06 00:15:00,65.5,61.9,30.08,NW,318,3.0,3.0,88,0.00,,,0.00,0,Wunderground v.1.15,2013-02-06 10:15:00,
2013-02-06 00:20:00,65.4,61.4,30.08,NW,318,2.0,2.0,87,0.00,,,0.00,0,Wunderground v.1.15,2013-02-06 10:20:00,
2013-02-06 00:30:00,65.0,60.7,30.08,NW,319,1.0,3.0,86,0.00,,,0.00,0,Wunderground v.1.15,2013-02-06 10:30:00,
2013-02-06 00:35:00,64.7,60.4,30.08,North,355,2.0,3.0,86,0.00,,,0.00,0,Wunderground v.1.15,2013-02-06 10:35:00,
2013-02-06 00:40:00,64.8,60.5,30.08,North,355,3.0,3.0,86,0.00,,,0.00,0,Wunderground v.1.15,2013-02-06 10:40:00,
2013-02-06 00:50:00,65.3,60.7,30.07,North,355,4.0,4.0,85,0.00,,,0.00,0,Wunderground v.1.15,2013-02-06 10:50:00,
2013-02-06 00:55:00,65.7,60.7,30.07,North,350,4.0,6.0,84,0.00,,,0.00,0,Wunderground v.1.15,2013-02-06 10:55:00,
2013-02-06 01:00:00,66.0,61.0,30.07,North,350,3.0,4.0,84,0.00,,,0.00,0,Wunderground v.1.15,2013-02-06 11:00:00,
2013-02-06 01:10:00,67.5,61.5,30.06,NNW,327,4.0,4.0,81,0.00,,,0.00,0,Wunderground v.1.15,2013-02-06 11:10:00,
2013-02-06 01:15:00,67.8,61.4,30.06,NNW,327,3.0,4.0,80,0.00,,,0.00,0,Wunderground v.1.15,2013-02-06 11:15:00,
2013-02-06 01:20:00,67.2,61.5,30.06,NNW,327,1.0,1.0,82,0.00,,,0.00,0,Wunderground v.1.15,2013-02-06 11:20:00,
2013-02-06 01:30:00,66.7,61.4,30.06,NNW,327,0.0,0.0,83,0.00,,,0.00,0,Wunderground v.1.15,2013-02-06 11:30:00,
2013-02-06 01:35:00,66.4,61.4,30.06,NNW,327,0.0,0.0,84,0.00,,,0.00,0,Wunderground v.1.15,2013-02-06 11:35:00,
2013-02-06 01:40:00,66.1,60.8,30.07,NNW,331,1.0,2.0,83,0.00,,,0.00,0,Wunderground v.1.15,2013-02-06 11:40:00,
2013-02-06 01:50:00,65.7,60.4,30.06,NNE,13,2.0,2.0,83,0.00,,,0.00,0,Wunderground v.1.15,2013-02-06 11:50:00,
2013-02-06 01:55:00,65.7,60.4,30.06,NNW,342,2.0,4.0,83,0.00,,,0.00,0,Wunderground v.1.15,2013-02-06 11:55:00,
2013-02-06 02:00:00,65.7,60.4,30.06,NNW,329,4.0,4.0,83,0.00,,,0.00,0,Wunderground v.1.15,2013-02-06 12:00:00,
2013-02-06 02:10:00,65.9,60.9,30.06,NNW,329,3.0,3.0,84,0.00,,,0.00,0,Wunderground v.1.15,2013-02-06 12:10:00,
2013-02-06 02:15:00,65.9,61.3,30.06,NNW,329,2.0,3.0,85,0.00,,,0.00,0,Wunderground v.1.15,2013-02-06 12:15:00,
2013-02-06 02:25:00,66.6,61.9,30.06,NNW,329,2.0,4.0,85,0.00,,,0.00,0,Wunderground v.1.15,2013-02-06 12:25:00,
2013-02-06 02:30:00,66.4,61.8,30.06,NNW,329,1.0,1.0,85,0.00,,,0.00,0,Wunderground v.1.15,2013-02-06 12:30:00,
2013-02-06 02:35:00,66.6,62.3,30.06,NNW,329,1.0,4.0,86,0.00,,,0.00,0,Wunderground v.1.15,2013-02-06 12:35:00,
2013-02-06 02:40:00,66.9,62.6,30.05,NNW,329,3.0,3.0,86,0.00,,,0.00,0,Wunderground v.1.15,2013-02-06 12:40:00,
2013-02-06 02:50:00,67.2,62.9,30.05,NNW,329,3.0,3.0,86,0.00,,,0.00,0,Wunderground v.1.15,2013-02-06 12:50:00,
2013-02-06 02:55:00,67.2,62.9,30.05,NNW,329,3.0,3.0,86,0.00,,,0.00,0,Wunderground v.1.15,2013-02-06 12:55:00,
2013-02-06 03:00:00,67.1,62.8,30.04,NNW,329,3.0,3.0,86,0.00,,,0.00,0,Wunderground v.1.15,2013-02-06 13:00:00,
2013-02-06 03:10:00,67.3,63.0,30.04,NNW,329,2.0,2.0,86,0.00,,,0.00,0,Wunderground v.1.15,2013-02-06 13:10:00,
2013-02-06 03:15:00,67.5,62.8,30.04,NNW,329,1.0,2.0,85,0.00,,,0.00,0,Wunderground v.1.15,2013-02-06 13:15:00,
2013-02-06 03:20:00,67.3,63.0,30.04,NNW,329,0.0,0.0,86,0.00,,,0.00,0,Wunderground v.1.15,2013-02-06 13:20:00,
2013-02-06 03:30:00,66.3,62.6,30.04,NNW,329,0.0,0.0,88,0.00,,,0.00,0,Wunderground v.1.15,2013-02-06 13:30:00,
2013-02-06 03:35:00,65.9,62.6,30.04,NNW,329,0.0,0.0,89,0.00,,,0.00,0,Wunderground v.1.15,2013-02-06 13:35:00,
2013-02-06 03:40:00,65.7,62.4,30.04,NNW,329,0.0,0.0,89,0.00,,,0.00,0,Wunderground v.1.15,2013-02-06 13:40:00,
2013-02-06 03:50:00,65.7,62.7,30.04,NNW,329,0.0,0.0,90,0.00,,,0.00,0,Wunderground v.1.15,2013-02-06 13:50:00,
2013-02-06 03:55:00,65.7,62.7,30.04,NNW,329,0.0,0.0,90,0.00,,,0.00,0,Wunderground v.1.15,2013-02-06 13:55:00,
2013-02-06 04:00:00,65.4,62.4,30.04,NNW,329,0.0,0.0,90,0.00,,,0.00,0,Wunderground v.1.15,2013-02-06 14:00:00,
2013-02-06 04:10:00,64.5,62.1,30.04,NNW,329,1.0,1.0,92,0.00,,,0.00,0,Wunderground v.1.15,2013-02-06 14:10:00,
2013-02-06 04:15:00,64.3,62.2,30.03,NNW,329,2.0,3.0,93,0.00,,,0.00,0,Wunderground v.1.15,2013-02-06 14:15:00,
2013-02-06 04:20:00,64.3,62.2,30.03,NNW,329,3.0,3.0,93,0.00,,,0.00,0,Wunderground v.1.15,2013-02-06 14:20:00,
2013-02-06 04:25:00,64.3,62.2,30.03,NNW,329,2.0,3.0,93,0.00,,,0.00,0,Wunderground v.1.15,2013-02-06 14:25:00,
2013-02-06 04:35:00,63.7,61.9,30.03,NNW,329,3.0,4.0,94,0.00,,,0.00,0,Wunderground v.1.15,2013-02-06 14:35:00,
2013-02-06 04:40:00,64.0,62.2,30.03,NNW,329,3.0,3.0,94,0.00,,,0.00,0,Wunderground v.1.15,2013-02-06 14:40:00,
2013-02-06 04:45:00,64.0,61.9,30.03,NNW,329,3.0,3.0,93,0.00,,,0.00,0,Wunderground v.1.15,2013-02-06 14:45:00,
2013-02-06 04:55:00,63.9,61.8,30.03,NNW,329,3.0,3.0,93,0.00,,,0.00,0,Wunderground v.1.15,2013-02-06 14:55:00,
2013-02-06 05:00:00,63.8,61.7,30.03,NNW,329,3.0,3.0,93,0.00,,,0.00,0,Wunderground v.1.15,2013-02-06 15:00:00,
2013-02-06 05:10:00,64.0,61.6,30.03,NNW,329,2.0,2.0,92,0.00,,,0.00,0,Wunderground v.1.15,2013-02-06 15:10:00,
2013-02-06 05:15:00,64.0,61.6,30.04,NNW,329,3.0,3.0,92,0.00,,,0.00,0,Wunderground v.1.15,2013-02-06 15:15:00,
2013-02-06 05:20:00,64.2,61.8,30.04,NNW,329,3.0,3.0,92,0.00,,,0.00,0,Wunderground v.1.15,2013-02-06 15:20:00,
2013-02-06 05:25:00,64.1,61.4,30.04,NW,320,3.0,4.0,91,0.00,,,0.00,0,Wunderground v.1.15,2013-02-06 15:25:00,
2013-02-06 05:30:00,64.5,61.8,30.04,NW,321,3.0,3.0,91,0.00,,,0.00,0,Wunderground v.1.15,2013-02-06 15:30:00,
2013-02-06 05:40:00,64.1,61.4,30.05,NW,321,0.0,0.0,91,0.00,,,0.00,0,Wunderground v.1.15,2013-02-06 15:40:00,
2013-02-06 05:45:00,63.7,61.0,30.05,NW,321,1.0,3.0,91,0.00,,,0.00,0,Wunderground v.1.15,2013-02-06 15:45:00,
2013-02-06 05:50:00,63.3,60.6,30.05,NW,325,2.0,2.0,91,0.00,,,0.00,0,Wunderground v.1.15,2013-02-06 15:50:00,
2013-02-06 06:00:00,63.2,60.8,30.06,NW,325,2.0,4.0,92,0.00,,,0.00,0,Wunderground v.1.15,2013-02-06 16:00:00,
2013-02-06 06:10:00,62.9,61.1,30.06,NW,325,1.0,1.0,94,0.00,,,0.00,0,Wunderground v.1.15,2013-02-06 16:10:00,
2013-02-06 06:15:00,63.1,61.0,30.06,NW,325,1.0,3.0,93,0.00,,,0.00,0,Wunderground v.1.15,2013-02-06 16:15:00,
2013-02-06 06:20:00,63.4,61.6,30.06,NW,325,2.0,3.0,94,0.00,,,0.00,0,Wunderground v.1.15,2013-02-06 16:20:00,
2013-02-06 06:25:00,63.3,61.2,30.06,NW,325,2.0,3.0,93,0.00,,,0.00,0,Wunderground v.1.15,2013-02-06 16:25:00,
2013-02-06 06:35:00,63.3,61.2,30.06,NW,325,1.0,2.0,93,0.00,,,0.00,0,Wunderground v.1.15,2013-02-06 16:35:00,
2013-02-06 06:40:00,63.0,60.9,30.06,NW,325,1.0,2.0,93,0.00,,,0.00,0,Wunderground v.1.15,2013-02-06 16:40:00,
2013-02-06 06:45:00,63.0,61.2,30.06,NW,324,2.0,2.0,94,0.00,,,0.00,0,Wunderground v.1.15,2013-02-06 16:45:00,
2013-02-06 06:55:00,63.1,61.0,30.06,NW,324,2.0,3.0,93,0.00,,,0.00,0,Wunderground v.1.15,2013-02-06 16:55:00,
2013-02-06 07:00:00,63.1,61.0,30.07,NW,324,1.0,1.0,93,0.00,,,0.00,9,Wunderground v.1.15,2013-02-06 17:00:00,
2013-02-06 07:10:00,63.4,61.6,30.06,NW,324,2.0,2.0,94,0.00,,,0.00,19,Wunderground v.1.15,2013-02-06 17:10:00,
2013-02-06 07:15:00,63.8,61.7,30.07,NW,324,2.0,2.0,93,0.00,,,0.00,37,Wunderground v.1.15,2013-02-06 17:15:00,
2013-02-06 07:20:00,64.0,61.9,30.07,NW,324,1.0,1.0,93,0.00,,,0.00,47,Wunderground v.1.15,2013-02-06 17:20:00,
2013-02-06 07:25:00,64.3,62.2,30.07,NW,324,1.0,1.0,93,0.00,,,0.00,60,Wunderground v.1.15,2013-02-06 17:25:00,
2013-02-06 07:35:00,65.5,63.4,30.07,NW,324,0.0,0.0,93,0.00,,,0.00,86,Wunderground v.1.15,2013-02-06 17:35:00,
2013-02-06 07:40:00,66.5,64.1,30.07,NW,324,0.0,0.0,92,0.00,,,0.00,111,Wunderground v.1.15,2013-02-06 17:40:00,
2013-02-06 07:45:00,67.3,64.6,30.08,NW,324,0.0,0.0,91,0.00,,,0.00,132,Wunderground v.1.15,2013-02-06 17:45:00,
2013-02-06 07:50:00,67.8,65.1,30.08,NW,324,0.0,0.0,91,0.00,,,0.00,153,Wunderground v.1.15,2013-02-06 17:50:00,
2013-02-06 08:00:00,69.2,65.8,30.08,NW,324,0.0,0.0,89,0.00,,,0.00,100,Wunderground v.1.15,2013-02-06 18:00:00,
2013-02-06 08:10:00,69.9,65.9,30.08,NW,325,0.0,0.0,87,0.00,,,0.00,141,Wunderground v.1.15,2013-02-06 18:10:00,
2013-02-06 08:15:00,70.1,66.0,30.08,NW,324,0.0,0.0,87,0.00,,,0.00,327,Wunderground v.1.15,2013-02-06 18:15:00,
2013-02-06 08:25:00,71.0,65.2,30.08,NW,325,1.0,1.0,82,0.00,,,0.00,287,Wunderground v.1.15,2013-02-06 18:25:00,
2013-02-06 08:30:00,71.5,65.4,30.09,NW,324,1.0,1.0,81,0.00,,,0.00,302,Wunderground v.1.15,2013-02-06 18:30:00,
2013-02-06 08:35:00,72.3,66.1,30.09,NW,324,1.0,1.0,81,0.00,,,0.00,323,Wunderground v.1.15,2013-02-06 18:35:00,
2013-02-06 08:45:00,73.2,65.9,30.09,NW,318,1.0,3.0,78,0.00,,,0.00,366,Wunderground v.1.15,2013-02-06 18:45:00,
2013-02-06 08:50:00,73.2,65.9,30.09,West,259,1.0,1.0,78,0.00,,,0.00,383,Wunderground v.1.15,2013-02-06 18:50:00,
2013-02-06 09:00:00,73.4,66.1,30.10,West,259,1.0,3.0,78,0.00,,,0.00,418,Wunderground v.1.15,2013-02-06 19:00:00,
2013-02-06 09:10:00,73.8,66.5,30.10,West,259,1.0,3.0,78,0.00,,,0.00,388,Wunderground v.1.15,2013-02-06 19:10:00,
2013-02-06 09:15:00,74.0,67.1,30.10,SSW,211,2.0,3.0,79,0.00,,,0.00,345,Wunderground v.1.15,2013-02-06 19:15:00,
2013-02-06 09:20:00,74.1,66.8,30.10,SSW,204,2.0,2.0,78,0.00,,,0.00,503,Wunderground v.1.15,2013-02-06 19:20:00,
2013-02-06 09:25:00,74.3,67.0,30.10,SSW,203,1.0,3.0,78,0.00,,,0.00,517,Wunderground v.1.15,2013-02-06 19:25:00,
2013-02-06 09:30:00,74.6,66.9,30.10,South,175,1.0,1.0,77,0.00,,,0.00,578,Wunderground v.1.15,2013-02-06 19:30:00,
2013-02-06 09:35:00,75.1,67.4,30.10,SE,138,3.0,10.0,77,0.00,,,0.00,613,Wunderground v.1.15,2013-02-06 19:35:00,
2013-02-06 09:45:00,74.7,67.4,30.10,East,84,6.0,6.0,78,0.00,,,0.00,617,Wunderground v.1.15,2013-02-06 19:45:00,
2013-02-06 09:50:00,75.0,67.7,30.10,ENE,72,6.0,6.0,78,0.00,,,0.00,640,Wunderground v.1.15,2013-02-06 19:50:00,
2013-02-06 09:55:00,75.4,68.1,30.10,SE,132,5.0,6.0,78,0.00,,,0.00,612,Wunderground v.1.15,2013-02-06 19:55:00,
2013-02-06 10:00:00,75.2,67.9,30.10,SE,135,5.0,7.0,78,0.00,,,0.00,404,Wunderground v.1.15,2013-02-06 20:00:00,
2013-02-06 10:10:00,75.4,68.4,30.10,SE,142,5.0,9.0,79,0.00,,,0.00,619,Wunderground v.1.15,2013-02-06 20:10:00,
2013-02-06 10:15:00,75.5,68.5,30.10,SE,133,6.0,11.0,79,0.00,,,0.00,694,Wunderground v.1.15,2013-02-06 20:15:00,
2013-02-06 10:20:00,75.2,68.2,30.10,East,97,8.0,10.0,79,0.00,,,0.00,705,Wunderground v.1.15,2013-02-06 20:20:00,
2013-02-06 10:25:00,75.5,68.5,30.09,East,80,9.0,10.0,79,0.00,,,0.00,751,Wunderground v.1.15,2013-02-06 20:25:00,
2013-02-06 10:30:00,75.7,68.4,30.09,SSE,156,8.0,9.0,78,0.00,,,0.00,714,Wunderground v.1.15,2013-02-06 20:30:00,
2013-02-06 10:40:00,74.9,67.6,30.09,SE,126,9.0,9.0,78,0.00,,,0.00,352,Wunderground v.1.15,2013-02-06 20:40:00,
2013-02-06 10:45:00,74.6,68.4,30.09,East,79,8.0,9.0,81,0.00,,,0.00,445,Wunderground v.1.15,2013-02-06 20:45:00,
2013-02-06 10:50:00,75.2,68.2,30.09,ENE,74,5.0,5.0,79,0.00,,,0.00,865,Wunderground v.1.15,2013-02-06 20:50:00,
2013-02-06 10:55:00,76.5,69.1,30.09,ESE,106,5.0,7.0,78,0.00,,,0.00,969,Wunderground v.1.15,2013-02-06 20:55:00,
2013-02-06 11:00:00,77.0,68.1,30.09,ENE,62,6.0,12.0,74,0.00,,,0.00,872,Wunderground v.1.15,2013-02-06 21:00:00,
2013-02-06 11:10:00,76.9,69.5,30.08,SE,141,9.0,10.0,78,0.00,,,0.00,919,Wunderground v.1.15,2013-02-06 21:10:00,
2013-02-06 11:15:00,76.9,69.9,30.09,ESE,115,7.0,10.0,79,0.00,,,0.00,886,Wunderground v.1.15,2013-02-06 21:15:00,
2013-02-06 11:20:00,76.3,69.7,30.08,SSE,159,9.0,14.0,80,0.00,,,0.00,854,Wunderground v.1.15,2013-02-06 21:20:00,
2013-02-06 11:30:00,76.0,69.4,30.08,ESE,108,9.0,13.0,80,0.00,,,0.00,837,Wunderground v.1.15,2013-02-06 21:30:00,
2013-02-06 11:35:00,76.1,70.2,30.08,ESE,107,9.0,13.0,82,0.00,,,0.00,840,Wunderground v.1.15,2013-02-06 21:35:00,
2013-02-06 11:40:00,76.0,70.1,30.08,East,98,8.0,16.0,82,0.00,,,0.00,847,Wunderground v.1.15,2013-02-06 21:40:00,
2013-02-06 11:45:00,75.8,70.3,30.08,SE,136,8.0,16.0,83,0.00,,,0.00,849,Wunderground v.1.15,2013-02-06 21:45:00,
2013-02-06 11:50:00,75.8,69.9,30.08,SE,135,8.0,8.0,82,0.00,,,0.00,860,Wunderground v.1.15,2013-02-06 21:50:00,
2013-02-06 12:00:00,75.9,70.0,30.07,ESE,113,9.0,9.0,82,0.00,,,0.00,872,Wunderground v.1.15,2013-02-06 22:00:00,
2013-02-06 12:10:00,75.8,69.9,30.07,SE,126,9.0,9.0,82,0.00,,,0.00,879,Wunderground v.1.15,2013-02-06 22:10:00,
2013-02-06 12:15:00,75.7,70.2,30.07,ENE,77,9.0,9.0,83,0.00,,,0.00,882,Wunderground v.1.15,2013-02-06 22:15:00,
2013-02-06 12:20:00,75.6,70.1,30.07,NNE,27,9.0,9.0,83,0.00,,,0.00,881,Wunderground v.1.15,2013-02-06 22:20:00,
2013-02-06 12:30:00,75.8,70.3,30.06,SE,145,8.0,8.0,83,0.00,,,0.00,886,Wunderground v.1.15,2013-02-06 22:30:00,
2013-02-06 12:35:00,75.9,70.4,30.06,NE,41,7.0,8.0,83,0.00,,,0.00,888,Wunderground v.1.15,2013-02-06 22:35:00,
2013-02-06 12:40:00,75.6,70.1,30.06,ESE,121,9.0,9.0,83,0.00,,,0.00,912,Wunderground v.1.15,2013-02-06 22:40:00,
2013-02-06 12:50:00,74.9,70.1,30.05,ESE,113,10.0,13.0,85,0.00,,,0.00,933,Wunderground v.1.15,2013-02-06 22:50:00,
2013-02-06 12:55:00,74.8,70.0,30.05,ESE,120,10.0,14.0,85,0.00,,,0.00,956,Wunderground v.1.15,2013-02-06 22:55:00,
2013-02-06 13:00:00,74.5,70.0,30.05,SE,130,9.0,9.0,86,0.00,,,0.00,976,Wunderground v.1.15,2013-02-06 23:00:00,
2013-02-06 13:10:00,75.2,70.0,30.05,South,171,7.0,7.0,84,0.00,,,0.00,1107,Wunderground v.1.15,2013-02-06 23:10:00,
2013-02-06 13:15:00,74.9,69.7,30.05,ESE,116,6.0,7.0,84,0.00,,,0.00,1037,Wunderground v.1.15,2013-02-06 23:15:00,
2013-02-06 13:20:00,75.0,69.8,30.04,SE,129,6.0,6.0,84,0.00,,,0.00,1007,Wunderground v.1.15,2013-02-06 23:20:00,
2013-02-06 13:30:00,74.8,70.0,30.05,ENE,65,7.0,7.0,85,0.00,,,0.00,341,Wunderground v.1.15,2013-02-06 23:30:00,
2013-02-06 13:35:00,74.2,69.4,30.05,ESE,114,7.0,10.0,85,0.00,,,0.00,316,Wunderground v.1.15,2013-02-06 23:35:00,
2013-02-06 13:40:00,74.0,69.5,30.04,SE,136,6.0,11.0,86,0.00,,,0.00,1130,Wunderground v.1.15,2013-02-06 23:40:00,
2013-02-06 13:45:00,74.1,69.3,30.04,ESE,121,6.0,11.0,85,0.00,,,0.00,408,Wunderground v.1.15,2013-02-06 23:45:00,
2013-02-06 13:50:00,74.0,69.5,30.04,SE,132,6.0,6.0,86,0.00,,,0.00,330,Wunderground v.1.15,2013-02-06 23:50:00,
2013-02-06 14:00:00,74.0,69.9,30.04,SSE,161,6.0,6.0,87,0.00,,,0.00,265,Wunderground v.1.15,2013-02-07 00:00:00,
2013-02-06 14:10:00,73.2,69.1,30.03,South,178,6.0,6.0,87,0.00,,,0.00,156,Wunderground v.1.15,2013-02-07 00:10:00,
2013-02-06 14:15:00,72.7,68.3,30.03,SE,141,6.0,6.0,86,0.00,,,0.00,179,Wunderground v.1.15,2013-02-07 00:15:00,
2013-02-06 14:20:00,72.5,68.4,30.03,SE,143,5.0,5.0,87,0.00,,,0.00,153,Wunderground v.1.15,2013-02-07 00:20:00,
2013-02-06 14:25:00,72.6,68.5,30.03,SSE,157,3.0,5.0,87,0.00,,,0.00,135,Wunderground v.1.15,2013-02-07 00:25:00,
2013-02-06 14:30:00,72.7,68.6,30.03,SSE,157,3.0,3.0,87,0.00,,,0.00,116,Wunderground v.1.15,2013-02-07 00:30:00,
2013-02-06 14:40:00,72.9,68.8,30.03,South,170,1.0,1.0,87,0.00,,,0.00,95,Wunderground v.1.15,2013-02-07 00:40:00,
2013-02-06 14:45:00,72.7,68.3,30.03,East,86,3.0,7.0,86,0.00,,,0.00,146,Wunderground v.1.15,2013-02-07 00:45:00,
2013-02-06 14:50:00,72.7,68.6,30.03,SSE,155,4.0,4.0,87,0.00,,,0.00,167,Wunderground v.1.15,2013-02-07 00:50:00,
2013-02-06 14:55:00,72.8,68.7,30.02,SSE,156,2.0,4.0,87,0.00,,,0.00,121,Wunderground v.1.15,2013-02-07 00:55:00,
2013-02-06 15:00:00,72.7,68.6,30.02,SSE,158,3.0,3.0,87,0.00,,,0.00,141,Wunderground v.1.15,2013-02-07 01:00:00,
2013-02-06 15:10:00,72.9,68.8,30.02,SE,131,4.0,7.0,87,0.00,,,0.00,90,Wunderground v.1.15,2013-02-07 01:10:00,
2013-02-06 15:20:00,72.7,68.9,30.02,SSE,154,1.0,1.0,88,0.00,,,0.00,105,Wunderground v.1.15,2013-02-07 01:20:00,
2013-02-06 15:25:00,72.6,68.8,30.02,SW,231,2.0,2.0,88,0.00,,,0.00,95,Wunderground v.1.15,2013-02-07 01:25:00,
2013-02-06 15:30:00,72.6,69.2,30.02,SE,140,3.0,3.0,89,0.00,,,0.00,169,Wunderground v.1.15,2013-02-07 01:30:00,
2013-02-06 15:40:00,72.6,69.5,30.02,SSE,166,4.0,4.0,90,0.00,,,0.00,91,Wunderground v.1.15,2013-02-07 01:40:00,
2013-02-06 15:45:00,72.5,69.4,30.02,South,171,4.0,4.0,90,0.00,,,0.00,81,Wunderground v.1.15,2013-02-07 01:45:00,
2013-02-06 15:55:00,72.2,69.1,30.02,ESE,119,3.0,4.0,90,0.00,,,0.00,113,Wunderground v.1.15,2013-02-07 01:55:00,
2013-02-06 16:00:00,72.2,69.4,30.02,SSE,151,2.0,3.0,91,0.00,,,0.00,185,Wunderground v.1.15,2013-02-07 02:00:00,
2013-02-06 16:10:00,72.3,69.2,30.02,SSE,151,1.0,2.0,90,0.00,,,0.00,153,Wunderground v.1.15,2013-02-07 02:10:00,
2013-02-06 16:15:00,72.3,69.2,30.03,SSE,152,1.0,3.0,90,0.00,,,0.00,128,Wunderground v.1.15,2013-02-07 02:15:00,
2013-02-06 16:20:00,72.3,69.5,30.03,SSE,166,2.0,6.0,91,0.00,,,0.00,113,Wunderground v.1.15,2013-02-07 02:20:00,
2013-02-06 16:25:00,72.2,69.4,30.03,East,92,3.0,6.0,91,0.00,,,0.00,86,Wunderground v.1.15,2013-02-07 02:25:00,
2013-02-06 16:30:00,72.1,69.3,30.03,South,190,4.0,4.0,91,0.00,,,0.00,134,Wunderground v.1.15,2013-02-07 02:30:00,
2013-02-06 16:40:00,72.0,69.2,30.03,SSE,158,3.0,3.0,91,0.00,,,0.00,141,Wunderground v.1.15,2013-02-07 02:40:00,
2013-02-06 16:45:00,71.9,69.1,30.02,SSE,158,1.0,3.0,91,0.00,,,0.00,123,Wunderground v.1.15,2013-02-07 02:45:00,
2013-02-06 16:50:00,72.0,69.2,30.02,SW,227,2.0,2.0,91,0.00,,,0.00,65,Wunderground v.1.15,2013-02-07 02:50:00,
2013-02-06 17:00:00,72.0,69.2,30.03,WSW,246,4.0,6.0,91,0.00,,,0.00,28,Wunderground v.1.15,2013-02-07 03:00:00,
2013-02-06 17:10:00,71.9,69.1,30.03,SSW,213,5.0,5.0,91,0.00,,,0.00,19,Wunderground v.1.15,2013-02-07 03:10:00,
2013-02-06 17:15:00,71.9,69.1,30.03,SW,216,5.0,5.0,91,0.00,,,0.00,21,Wunderground v.1.15,2013-02-07 03:15:00,
2013-02-06 17:20:00,71.9,69.1,30.04,SW,216,4.0,4.0,91,0.00,,,0.00,18,Wunderground v.1.15,2013-02-07 03:20:00,
2013-02-06 17:25:00,71.9,69.1,30.04,SSW,206,1.0,4.0,91,0.00,,,0.00,23,Wunderground v.1.15,2013-02-07 03:25:00,
2013-02-06 17:30:00,71.8,69.3,30.04,SSW,207,2.0,3.0,92,0.00,,,0.00,32,Wunderground v.1.15,2013-02-07 03:30:00,
2013-02-06 17:40:00,71.7,69.6,30.04,SSW,211,4.0,4.0,93,0.00,,,0.00,53,Wunderground v.1.15,2013-02-07 03:40:00,
2013-02-06 17:45:00,71.7,69.6,30.04,SSW,211,3.0,4.0,93,0.00,,,0.00,30,Wunderground v.1.15,2013-02-07 03:45:00,
2013-02-06 17:50:00,71.7,69.6,30.04,SSW,211,1.0,6.0,93,0.00,,,0.00,30,Wunderground v.1.15,2013-02-07 03:50:00,
2013-02-06 18:00:00,71.5,69.7,30.05,SE,143,2.0,2.0,94,0.00,,,0.00,18,Wunderground v.1.15,2013-02-07 04:00:00,
2013-02-06 18:10:00,71.3,69.2,30.05,North,360,1.0,2.0,93,0.00,,,0.00,9,Wunderground v.1.15,2013-02-07 04:10:00,
2013-02-06 18:15:00,71.2,69.1,30.05,North,360,1.0,2.0,93,0.00,,,0.00,5,Wunderground v.1.15,2013-02-07 04:15:00,
2013-02-06 18:20:00,71.1,69.0,30.05,North,360,1.0,1.0,93,0.00,,,0.00,0,Wunderground v.1.15,2013-02-07 04:20:00,
2013-02-06 18:25:00,71.1,69.0,30.06,North,360,0.0,1.0,93,0.00,,,0.00,0,Wunderground v.1.15,2013-02-07 04:25:00,
2013-02-06 18:30:00,70.9,68.8,30.06,North,360,0.0,0.0,93,0.00,,,0.00,0,Wunderground v.1.15,2013-02-07 04:30:00,
2013-02-06 18:35:00,70.7,68.6,30.06,West,266,1.0,3.0,93,0.00,,,0.00,0,Wunderground v.1.15,2013-02-07 04:35:00,
2013-02-06 18:45:00,70.4,68.6,30.06,West,266,1.0,2.0,94,0.00,,,0.00,0,Wunderground v.1.15,2013-02-07 04:45:00,
2013-02-06 18:50:00,70.2,68.1,30.06,West,266,1.0,1.0,93,0.00,,,0.00,0,Wunderground v.1.15,2013-02-07 04:50:00,
2013-02-06 18:55:00,70.0,67.9,30.06,West,267,2.0,2.0,93,0.00,,,0.00,0,Wunderground v.1.15,2013-02-07 04:55:00,
2013-02-06 19:01:00,69.9,67.8,30.06,West,267,1.0,1.0,93,0.00,,,0.00,0,Wunderground v.1.15,2013-02-07 05:01:00,
2013-02-06 19:05:00,69.7,67.9,30.06,West,267,0.0,1.0,94,0.00,,,0.00,0,Wunderground v.1.15,2013-02-07 05:05:00,
2013-02-06 19:15:00,69.6,67.8,30.07,West,267,0.0,0.0,94,0.00,,,0.00,0,Wunderground v.1.15,2013-02-07 05:15:00,
2013-02-06 19:20:00,69.4,67.6,30.07,West,272,1.0,3.0,94,0.00,,,0.00,0,Wunderground v.1.15,2013-02-07 05:20:00,
2013-02-06 19:25:00,69.2,67.4,30.07,West,272,2.0,3.0,94,0.00,,,0.00,0,Wunderground v.1.15,2013-02-07 05:25:00,
2013-02-06 19:35:00,68.8,67.3,30.08,West,272,0.0,1.0,95,0.00,,,0.00,0,Wunderground v.1.15,2013-02-07 05:35:00,
2013-02-06 19:40:00,68.6,67.1,30.08,West,272,0.0,0.0,95,0.00,,,0.00,0,Wunderground v.1.15,2013-02-07 05:40:00,
2013-02-06 19:45:00,68.2,66.7,30.08,NW,315,1.0,3.0,95,0.00,,,0.00,0,Wunderground v.1.15,2013-02-07 05:45:00,
2013-02-06 19:50:00,68.2,67.3,30.08,NW,315,3.0,4.0,97,0.00,,,0.00,0,Wunderground v.1.15,2013-02-07 05:50:00,
2013-02-06 19:55:00,68.5,67.3,30.08,NW,315,3.0,4.0,96,0.00,,,0.00,0,Wunderground v.1.15,2013-02-07 05:55:00,
2013-02-06 20:00:00,68.4,67.2,30.08,NW,315,2.0,2.0,96,0.00,,,0.00,0,Wunderground v.1.15,2013-02-07 06:00:00,
2013-02-06 20:10:00,68.3,66.8,30.08,NW,316,2.0,2.0,95,0.00,,,0.00,0,Wunderground v.1.15,2013-02-07 06:10:00,
2013-02-06 20:15:00,68.1,66.6,30.08,NW,316,1.0,2.0,95,0.00,,,0.00,0,Wunderground v.1.15,2013-02-07 06:15:00,
2013-02-06 20:20:00,67.9,66.4,30.08,NW,316,1.0,2.0,95,0.00,,,0.00,0,Wunderground v.1.15,2013-02-07 06:20:00,
2013-02-06 20:25:00,67.7,66.2,30.08,NW,315,3.0,3.0,95,0.00,,,0.00,0,Wunderground v.1.15,2013-02-07 06:25:00,
2013-02-06 20:35:00,67.3,65.8,30.09,NW,315,2.0,3.0,95,0.00,,,0.00,0,Wunderground v.1.15,2013-02-07 06:35:00,
2013-02-06 20:40:00,67.2,65.7,30.09,NW,315,2.0,2.0,95,0.00,,,0.00,0,Wunderground v.1.15,2013-02-07 06:40:00,
2013-02-06 20:45:00,67.0,65.5,30.09,NW,315,2.0,3.0,95,0.00,,,0.00,0,Wunderground v.1.15,2013-02-07 06:45:00,
2013-02-06 20:50:00,66.8,65.3,30.09,NW,315,1.0,1.0,95,0.00,,,0.00,0,Wunderground v.1.15,2013-02-07 06:50:00,
2013-02-06 21:00:00,66.5,65.0,30.09,NW,315,1.0,1.0,95,0.00,,,0.00,0,Wunderground v.1.15,2013-02-07 07:00:00,
2013-02-06 21:10:00,66.2,64.7,30.09,NW,315,1.0,4.0,95,0.00,,,0.00,0,Wunderground v.1.15,2013-02-07 07:10:00,
2013-02-06 21:15:00,66.3,64.8,30.09,NW,314,3.0,4.0,95,0.00,,,0.00,0,Wunderground v.1.15,2013-02-07 07:15:00,
2013-02-06 21:20:00,66.1,64.6,30.09,NW,314,4.0,4.0,95,0.00,,,0.00,0,Wunderground v.1.15,2013-02-07 07:20:00,
2013-02-06 21:25:00,66.2,64.7,30.09,NW,314,4.0,4.0,95,0.00,,,0.00,0,Wunderground v.1.15,2013-02-07 07:25:00,
2013-02-06 21:35:00,66.3,64.8,30.09,NW,315,2.0,3.0,95,0.00,,,0.00,0,Wunderground v.1.15,2013-02-07 07:35:00,
2013-02-06 21:40:00,66.2,64.7,30.09,NW,314,2.0,2.0,95,0.00,,,0.00,0,Wunderground v.1.15,2013-02-07 07:40:00,
2013-02-06 21:45:00,66.1,64.3,30.09,NW,314,2.0,2.0,94,0.00,,,0.00,0,Wunderground v.1.15,2013-02-07 07:45:00,
2013-02-06 21:55:00,66.2,64.4,30.09,NW,315,3.0,3.0,94,0.00,,,0.00,0,Wunderground v.1.15,2013-02-07 07:55:00,
2013-02-06 22:00:00,66.4,64.3,30.09,NW,315,1.0,1.0,93,0.00,,,0.00,0,Wunderground v.1.15,2013-02-07 08:00:00,
2013-02-06 22:10:00,66.7,64.3,30.09,NW,321,3.0,3.0,92,0.00,,,0.00,0,Wunderground v.1.15,2013-02-07 08:10:00,
2013-02-06 22:15:00,66.6,64.2,30.09,NW,321,3.0,3.0,92,0.00,,,0.00,0,Wunderground v.1.15,2013-02-07 08:15:00,
2013-02-06 22:25:00,66.0,63.9,30.09,NW,321,2.0,2.0,93,0.00,,,0.00,0,Wunderground v.1.15,2013-02-07 08:25:00,
2013-02-06 22:30:00,65.9,63.8,30.09,NW,321,2.0,2.0,93,0.00,,,0.00,0,Wunderground v.1.15,2013-02-07 08:30:00,
2013-02-06 22:35:00,66.0,63.9,30.09,NW,321,1.0,2.0,93,0.00,,,0.00,0,Wunderground v.1.15,2013-02-07 08:35:00,
2013-02-06 22:40:00,65.9,63.8,30.10,NW,321,0.0,0.0,93,0.00,,,0.00,0,Wunderground v.1.15,2013-02-07 08:40:00,
2013-02-06 22:50:00,65.6,63.8,30.10,NW,321,0.0,1.0,94,0.00,,,0.00,0,Wunderground v.1.15,2013-02-07 08:50:00,
2013-02-06 22:55:00,65.6,63.8,30.10,NW,321,1.0,1.0,94,0.00,,,0.00,0,Wunderground v.1.15,2013-02-07 08:55:00,
2013-02-06 23:00:00,65.9,64.1,30.10,NW,321,1.0,1.0,94,0.00,,,0.00,0,Wunderground v.1.15,2013-02-07 09:00:00,
2013-02-06 23:10:00,66.2,64.1,30.10,NW,321,0.0,0.0,93,0.00,,,0.00,0,Wunderground v.1.15,2013-02-07 09:10:00,
2013-02-06 23:20:00,66.2,64.1,30.10,NNW,328,1.0,1.0,93,0.00,,,0.00,0,Wunderground v.1.15,2013-02-07 09:20:00,
2013-02-06 23:25:00,66.2,63.8,30.10,NNW,328,1.0,1.0,92,0.00,,,0.00,0,Wunderground v.1.15,2013-02-07 09:25:00,
2013-02-06 23:30:00,66.1,64.0,30.10,NNW,328,1.0,2.0,93,0.00,,,0.00,0,Wunderground v.1.15,2013-02-07 09:30:00,
2013-02-06 23:40:00,66.2,63.8,30.10,NNW,328,2.0,2.0,92,0.00,,,0.00,0,Wunderground v.1.15,2013-02-07 09:40:00,
2013-02-06 23:45:00,66.1,64.0,30.10,NNW,328,0.0,3.0,93,0.00,,,0.00,0,Wunderground v.1.15,2013-02-07 09:45:00,
2013-02-06 23:50:00,66.0,63.9,30.09,NNW,328,2.0,3.0,93,0.00,,,0.00,0,Wunderground v.1.15,2013-02-07 09:50:00,